EW7239 Weather Reports


Display with metric or nautical units.
time (UTC)temp
F
wind
direction
speed
MPH
gust
MPH
rain 1hr
in
rain 24hr
in
rain mn
in
humidity
%
barometer
mb
20260502123439 56 224 2.0 4.0 0.00 0.00 0.00 86 1013.9
20260502122938 56 224 2.0 4.0 0.00 0.00 0.00 86 1013.8
20260502122439 56 224 1.0 4.0 0.00 0.00 0.00 86 1013.7
20260502121937 56 224 0.0 3.0 0.00 0.00 0.00 86 1013.7
20260502121436 57 224 0.0 0.0 0.00 0.00 0.00 86 1013.6
20260502120937 57 224 0.0 0.0 0.00 0.00 0.00 86 1013.6
20260502120436 56 224 1.0 3.0 0.00 0.00 0.00 86 1013.5
20260502115436 57 224 1.0 3.0 0.00 0.00 0.00 86 1013.5
20260502114935 57 224 1.0 3.0 0.00 0.00 0.00 86 1013.5
20260502114704 57 224 1.0 3.0 0.00 0.00 0.00 86 1013.4
20260502114206 57 224 1.0 4.0 0.00 0.00 0.00 86 1013.4
20260502113434 57 224 1.0 4.0 0.00 0.00 0.00 86 1013.4
20260502112931 57 224 1.0 3.0 0.00 0.00 0.00 86 1013.4
20260502112429 57 224 1.0 4.0 0.00 0.00 0.00 86 1013.2
20260502112159 57 224 0.0 4.0 0.00 0.00 0.00 86 1013.2
20260502111429 57 224 0.0 0.0 0.00 0.00 0.00 86 1013.4
20260502111158 57 224 0.0 0.0 0.00 0.00 0.00 86 1013.4
20260502110425 57 224 0.0 0.0 0.00 0.00 0.00 86 1013.3
20260502105925 57 224 0.0 0.0 0.00 0.00 0.00 86 1013.2
20260502105422 57 224 0.0 0.0 0.00 0.00 0.00 86 1013.2
20260502104922 58 224 0.0 0.0 0.00 0.00 0.00 86 1013.3
20260502104423 57 224 0.0 0.0 0.00 0.00 0.00 86 1013.2
20260502103920 57 224 0.0 0.0 0.00 0.00 0.00 86 1013.2
20260502103420 57 224 0.0 0.0 0.00 0.00 0.00 86 1013.1
20260502102921 57 224 0.0 1.0 0.00 0.00 0.00 85 1013.2
20260502102419 58 224 1.0 2.0 0.00 0.00 0.00 85 1013.2
20260502102148 58 224 0.0 2.0 0.00 0.00 0.00 85 1013.2
20260502101419 58 224 0.0 1.0 0.00 0.00 0.00 85 1013.2
20260502100917 58 224 0.0 0.0 0.00 0.00 0.00 85 1013.3
20260502100416 58 224 0.0 0.0 0.00 0.00 0.00 85 1013.2
20260502091413 59 224 0.0 1.0 0.00 0.00 0.00 84 1013.5
20260502090910 59 224 0.0 1.0 0.00 0.00 0.00 84 1013.5
20260502090639 59 224 1.0 2.0 0.00 0.00 0.00 84 1013.5
20260502090142 59 224 0.0 2.0 0.00 0.00 0.00 84 1013.5
20260502071354 61 224 2.0 4.0 0.00 0.00 0.00 81 1014.2
20260502070853 61 224 1.0 3.0 0.00 0.00 0.00 81 1014.2
20260502070354 61 224 1.0 3.0 0.00 0.00 0.00 81 1014.2
20260502070124 61 224 1.0 3.0 0.00 0.00 0.00 81 1014.4
20260502065353 61 224 1.0 3.0 0.00 0.00 0.00 81 1014.3
20260502064852 61 224 1.0 3.0 0.00 0.00 0.00 80 1014.2
20260502063851 62 224 1.0 4.0 0.00 0.00 0.00 80 1014.2
20260502063352 62 224 2.0 4.0 0.00 0.00 0.00 80 1014.2
20260502063122 62 224 2.0 5.0 0.00 0.00 0.00 80 1014.1
20260502062351 62 224 3.0 5.0 0.00 0.00 0.00 80 1014.0
20260502061850 62 224 2.0 4.0 0.00 0.00 0.00 79 1014.1
20260502061350 62 224 2.0 4.0 0.00 0.00 0.00 79 1014.1
20260502060851 62 224 2.0 5.0 0.00 0.00 0.00 79 1014.1
20260502060352 62 224 3.0 5.0 0.00 0.00 0.00 79 1014.1
20260502055852 62 224 3.0 5.0 0.00 0.00 0.00 79 1014.1
20260502055352 62 224 3.0 5.0 0.00 0.00 0.00 79 1014.2
20260502055123 63 224 3.0 5.0 0.00 0.00 0.00 79 1014.2
20260502054352 63 224 3.0 5.0 0.00 0.00 0.00 79 1014.2
20260502053851 63 224 3.0 5.0 0.00 0.00 0.00 78 1014.2
20260502053352 63 224 2.0 5.0 0.00 0.00 0.00 78 1014.2
20260502052851 63 224 3.0 4.0 0.00 0.00 0.00 78 1014.2
20260502052622 63 224 3.0 5.0 0.00 0.00 0.00 78 1014.2
20260502052122 64 224 3.0 5.0 0.00 0.00 0.00 77 1014.1
20260502051350 64 224 3.0 5.0 0.00 0.00 0.00 77 1014.1
20260502050852 64 224 2.0 5.0 0.00 0.00 0.00 77 1014.0
20260502050351 64 224 2.0 5.0 0.00 0.00 0.00 76 1014.1
20260502045350 64 224 2.0 5.0 0.00 0.00 0.00 77 1014.0
20260502044850 64 224 2.0 5.0 0.00 0.00 0.00 76 1014.0
20260502044351 64 224 3.0 5.0 0.00 0.00 0.00 75 1013.9
20260502043850 65 224 2.0 6.0 0.00 0.00 0.00 75 1013.8
20260502043350 65 223 3.0 6.0 0.00 0.00 0.00 75 1013.8
20260502042849 65 223 3.0 6.0 0.00 0.00 0.00 75 1013.7
20260502042348 65 223 4.0 8.0 0.00 0.00 0.00 74 1013.5
20260502041849 65 223 4.0 8.0 0.00 0.00 0.00 74 1013.5
20260502041349 65 223 4.0 8.0 0.00 0.00 0.00 73 1013.5
20260502040846 66 223 4.0 8.0 0.00 0.00 0.00 73 1013.5
20260502040348 66 225 4.0 8.0 0.00 0.00 0.00 72 1013.4
20260502040125 66 223 5.0 8.0 0.00 0.00 0.00 72 1013.2
20260502035346 66 223 5.0 8.0 0.00 0.00 0.00 72 1013.2
20260502034843 66 224 5.0 8.0 0.00 0.00 0.00 71 1013.1
20260502034343 67 225 5.0 10.0 0.00 0.00 0.00 71 1013.0
20260502034112 67 228 5.0 10.0 0.00 0.00 0.00 70 1012.9
20260502033341 67 228 5.0 9.0 0.00 0.00 0.00 70 1012.9
20260502032838 67 229 5.0 10.0 0.00 0.00 0.00 69 1012.7
20260502032340 67 231 5.0 10.0 0.00 0.00 0.00 69 1012.7
20260502031839 67 229 5.0 9.0 0.00 0.00 0.00 69 1012.6
20260502031337 67 227 6.0 9.0 0.00 0.00 0.00 69 1012.6
20260502030837 67 225 6.0 9.0 0.00 0.00 0.00 68 1012.7
20260502030337 68 221 5.0 9.0 0.00 0.00 0.00 68 1012.6
20260502025837 68 222 5.0 10.0 0.00 0.00 0.00 67 1012.5
20260502025607 68 224 5.0 10.0 0.00 0.00 0.00 67 1012.5
20260502024837 69 219 5.0 9.0 0.00 0.00 0.00 66 1012.3
20260502024608 69 225 5.0 8.0 0.00 0.00 0.00 66 1012.2
20260502024103 69 219 5.0 9.0 0.00 0.00 0.00 65 1012.1
20260502023329 69 219 5.0 9.0 0.00 0.00 0.00 64 1012.0
20260502022828 70 223 5.0 9.0 0.00 0.00 0.00 64 1011.9
20260502022328 70 220 5.0 9.0 0.00 0.00 0.00 63 1011.9
20260502021824 70 220 6.0 10.0 0.00 0.00 0.00 63 1011.9
20260502021323 71 221 6.0 10.0 0.00 0.00 0.00 62 1011.8
20260502020822 71 215 5.0 9.0 0.00 0.00 0.00 61 1011.7
20260502020318 71 215 6.0 9.0 0.00 0.00 0.00 61 1011.7
20260502020051 72 213 6.0 11.0 0.00 0.00 0.00 60 1011.6
20260502015316 72 211 6.0 13.0 0.00 0.00 0.00 59 1011.4
20260502014818 73 222 6.0 13.0 0.00 0.00 0.00 59 1011.3
20260502014315 73 209 7.0 13.0 0.00 0.00 0.00 58 1011.3
20260502013812 74 222 7.0 13.0 0.00 0.00 0.00 58 1011.2
20260502013312 74 215 6.0 12.0 0.00 0.00 0.00 57 1011.1
20260502012812 74 217 6.0 12.0 0.00 0.00 0.00 56 1011.0
20260502012311 75 216 6.0 11.0 0.00 0.00 0.00 55 1011.0
20260502011810 75 213 7.0 11.0 0.00 0.00 0.00 55 1011.0
20260502011309 75 222 7.0 11.0 0.00 0.00 0.00 55 1011.0
20260502010810 76 224 7.0 12.0 0.00 0.00 0.00 55 1011.0
20260502010538 76 196 7.0 12.0 0.00 0.00 0.00 54 1011.1
20260502005807 76 233 8.0 13.0 0.00 0.00 0.00 54 1011.0
20260502005306 77 217 8.0 13.0 0.00 0.00 0.00 52 1011.0
20260502004807 77 226 8.0 13.0 0.00 0.00 0.00 51 1010.9
20260502004308 78 218 7.0 14.0 0.00 0.00 0.00 52 1010.9
20260502003807 78 218 8.0 14.0 0.00 0.00 0.00 51 1010.9
20260502003306 78 232 8.0 14.0 0.00 0.00 0.00 51 1011.0
20260502002804 78 221 9.0 16.0 0.00 0.00 0.00 50 1010.9
20260502002305 78 218 9.0 16.0 0.00 0.00 0.00 49 1010.8
20260502001802 79 229 8.0 14.0 0.00 0.00 0.00 49 1010.8
20260502001301 80 217 8.0 13.0 0.00 0.00 0.00 48 1010.9
20260502000801 80 222 7.0 13.0 0.00 0.00 0.00 48 1010.8
20260502000303 81 225 7.0 15.0 0.00 0.00 0.00 47 1010.8
20260501235800 81 208 7.0 15.0 0.00 0.00 0.00 46 1010.8
20260501235300 82 216 7.0 13.0 0.00 0.00 0.00 45 1010.8
20260501235027 82 224 7.0 12.0 0.00 0.00 0.00 44 1010.7
20260501234256 83 240 7.0 13.0 0.00 0.00 0.00 43 1010.7
20260501233757 83 227 7.0 13.0 0.00 0.00 0.00 43 1010.7
20260501233527 82 263 7.0 14.0 0.00 0.00 0.00 42 1010.7
20260501233025 82 265 7.0 14.0 0.00 0.00 0.00 42 1010.8
20260501232253 83 248 8.0 13.0 0.00 0.00 0.00 43 1010.8
20260501231749 82 254 7.0 13.0 0.00 0.00 0.00 43 1010.7
20260501231249 83 214 6.0 13.0 0.00 0.00 0.00 42 1010.8
20260501230750 82 240 6.0 11.0 0.00 0.00 0.00 42 1010.8
20260501230519 82 229 6.0 11.0 0.00 0.00 0.00 43 1010.9
20260501225748 82 269 6.0 12.0 0.00 0.00 0.00 43 1011.0
20260501224747 82 253 6.0 13.0 0.00 0.00 0.00 44 1011.3
20260501224247 81 221 7.0 14.0 0.00 0.00 0.00 44 1011.4
20260501223744 81 238 7.0 14.0 0.00 0.00 0.00 44 1011.4
20260501223243 82 248 7.0 13.0 0.00 0.00 0.00 46 1011.5
20260501222744 81 238 7.0 13.0 0.00 0.00 0.00 47 1011.6
20260501222240 81 222 6.0 14.0 0.00 0.00 0.00 46 1011.7
20260501221740 81 223 6.0 14.0 0.00 0.00 0.00 47 1011.8
20260501221239 81 240 6.0 13.0 0.00 0.00 0.00 47 1011.8
20260501220734 81 229 6.0 11.0 0.00 0.00 0.00 48 1011.8
20260501220235 80 229 6.0 11.0 0.00 0.00 0.00 48 1011.9
20260501215734 80 221 6.0 14.0 0.00 0.00 0.00 47 1012.0
20260501215234 81 259 6.0 14.0 0.00 0.00 0.00 47 1012.1
20260501214734 81 239 7.0 12.0 0.00 0.00 0.00 47 1012.1
20260501214234 81 250 6.0 12.0 0.00 0.00 0.00 48 1012.2
20260501213733 80 224 5.0 11.0 0.00 0.00 0.00 48 1012.2
20260501213233 80 257 6.0 11.0 0.00 0.00 0.00 49 1012.3
20260501213006 79 223 7.0 12.0 0.00 0.00 0.00 50 1012.5
20260501212233 79 228 6.0 12.0 0.00 0.00 0.00 49 1012.5
20260501211730 78 223 5.0 11.0 0.00 0.00 0.00 49 1012.6
20260501211228 78 227 5.0 12.0 0.00 0.00 0.00 49 1012.7
20260501210729 78 245 6.0 12.0 0.00 0.00 0.00 51 1012.8
20260501210224 78 232 5.0 12.0 0.00 0.00 0.00 51 1012.9
20260501205955 78 214 5.0 12.0 0.00 0.00 0.00 51 1012.8
20260501205225 78 225 5.0 12.0 0.00 0.00 0.00 51 1012.9
20260501204954 77 235 5.0 11.0 0.00 0.00 0.00 52 1012.9
20260501204222 77 232 5.0 10.0 0.00 0.00 0.00 53 1012.9
20260501203721 77 227 5.0 10.0 0.00 0.00 0.00 52 1012.9
20260501203220 76 238 4.0 9.0 0.00 0.00 0.00 53 1012.9
20260501202721 76 260 5.0 10.0 0.00 0.00 0.00 54 1013.0
20260501202221 75 236 5.0 10.0 0.00 0.00 0.00 56 1013.0
20260501201720 74 223 5.0 11.0 0.00 0.00 0.00 56 1013.1
20260501201217 74 225 6.0 11.0 0.00 0.00 0.00 56 1013.1
20260501200717 74 212 5.0 7.0 0.00 0.00 0.00 56 1013.2
20260501200212 74 213 3.0 7.0 0.00 0.00 0.00 57 1013.4
20260501195712 74 229 3.0 8.0 0.00 0.00 0.00 59 1013.4
20260501195213 73 206 4.0 8.0 0.00 0.00 0.00 61 1013.5
20260501194942 72 223 3.0 8.0 0.00 0.00 0.00 61 1013.5
20260501194210 72 223 4.0 9.0 0.00 0.00 0.00 62 1013.6
20260501193211 72 223 3.0 8.0 0.00 0.00 0.00 62 1013.8
20260501192710 72 228 2.0 5.0 0.00 0.00 0.00 62 1013.9
20260501192211 71 230 3.0 7.0 0.00 0.00 0.00 62 1014.0
20260501191712 71 230 4.0 7.0 0.00 0.00 0.00 64 1014.0
20260501191211 70 205 4.0 7.0 0.00 0.00 0.00 65 1014.1
20260501190942 69 209 3.0 8.0 0.00 0.00 0.00 67 1014.2
20260501190441 69 212 3.0 8.0 0.00 0.00 0.00 67 1014.3
20260501185709 69 209 2.0 5.0 0.00 0.00 0.00 68 1014.3
20260501185208 68 209 2.0 7.0 0.00 0.00 0.00 69 1014.5
20260501184706 68 209 3.0 7.0 0.00 0.00 0.00 70 1014.6
20260501184438 67 207 5.0 7.0 0.00 0.00 0.00 70 1014.6
20260501183706 67 205 4.0 8.0 0.00 0.00 0.00 71 1014.7
20260501183207 67 210 3.0 8.0 0.00 0.00 0.00 72 1014.8
20260501182705 66 205 3.0 7.0 0.00 0.00 0.00 73 1015.0
20260501182202 66 196 4.0 7.0 0.00 0.00 0.00 73 1015.0
20260501181703 65 198 4.0 7.0 0.00 0.00 0.00 74 1015.0
20260501181200 65 225 4.0 8.0 0.00 0.00 0.00 75 1015.0
20260501180702 64 226 4.0 8.0 0.00 0.00 0.00 75 1015.0
20260501180433 64 229 4.0 8.0 0.00 0.00 0.00 76 1015.1
20260501175700 64 230 4.0 8.0 0.00 0.00 0.00 75 1015.1
20260501175159 64 238 2.0 7.0 0.00 0.00 0.00 77 1015.1
20260501174658 64 235 2.0 4.0 0.00 0.00 0.00 77 1015.3
20260501174158 63 235 1.0 4.0 0.00 0.00 0.00 77 1015.3
20260501173656 63 235 2.0 5.0 0.00 0.00 0.00 77 1015.3
20260501173426 63 235 2.0 5.0 0.00 0.00 0.00 78 1015.3
20260501172650 63 235 1.0 5.0 0.00 0.00 0.00 78 1015.2
20260501171650 63 235 1.0 4.0 0.00 0.00 0.00 79 1015.4
20260501171148 62 235 2.0 5.0 0.00 0.00 0.00 80 1015.4
20260501170646 62 235 1.0 5.0 0.00 0.00 0.00 80 1015.3
20260501170146 62 235 1.0 4.0 0.00 0.00 0.00 81 1015.3
20260501165643 62 235 1.0 4.0 0.00 0.00 0.00 81 1015.3
20260501165142 61 235 1.0 5.0 0.00 0.00 0.00 81 1015.3
20260501164641 61 235 1.0 5.0 0.00 0.00 0.00 82 1015.3
20260501164139 61 235 1.0 4.0 0.00 0.00 0.00 82 1015.2
20260501163640 61 235 1.0 3.0 0.00 0.00 0.00 82 1015.2
20260501163407 61 235 1.0 3.0 0.00 0.00 0.00 82 1015.3
20260501162636 61 235 1.0 3.0 0.00 0.00 0.00 82 1015.2
20260501162137 61 235 1.0 3.0 0.00 0.00 0.00 83 1015.2
20260501161637 60 235 1.0 3.0 0.00 0.00 0.00 83 1015.2
20260501161136 60 235 1.0 3.0 0.00 0.00 0.00 83 1015.3
20260501160905 60 235 0.0 2.0 0.00 0.00 0.00 84 1015.2
20260501160135 60 235 1.0 3.0 0.00 0.00 0.00 84 1015.2
20260501155635 60 235 1.0 3.0 0.00 0.00 0.00 84 1015.3
20260501155135 60 235 0.0 3.0 0.00 0.00 0.00 84 1015.3
20260501154629 60 235 0.0 0.0 0.00 0.00 0.00 84 1015.4
20260501154127 60 235 0.0 3.0 0.00 0.00 0.00 84 1015.3
20260501153628 60 235 1.0 3.0 0.00 0.00 0.00 84 1015.3
20260501153126 60 235 1.0 3.0 0.00 0.00 0.00 85 1015.2
20260501152627 59 235 1.0 4.0 0.00 0.00 0.00 85 1015.2
20260501152127 59 235 1.0 4.0 0.00 0.00 0.00 85 1015.1
20260501151626 59 235 2.0 4.0 0.00 0.00 0.00 85 1015.1
20260501151127 59 235 2.0 5.0 0.00 0.00 0.00 85 1015.1
20260501150858 59 235 2.0 5.0 0.00 0.00 0.00 85 1015.0
20260501150125 59 235 1.0 4.0 0.00 0.00 0.00 85 1015.0
20260501145853 59 235 0.0 2.0 0.00 0.00 0.00 85 1014.9
20260501145124 59 235 0.0 2.0 0.00 0.00 0.00 85 1015.0
20260501144620 59 235 1.0 2.0 0.00 0.00 0.00 85 1014.9
20260501144120 59 235 1.0 4.0 0.00 0.00 0.00 85 1014.9
20260501143619 58 235 1.0 4.0 0.00 0.00 0.00 85 1014.9
20260501143115 58 235 1.0 5.0 0.00 0.00 0.00 85 1014.8
20260501142616 58 235 2.0 5.0 0.00 0.00 0.00 85 1014.8
20260501142115 58 235 1.0 4.0 0.00 0.00 0.00 85 1014.8
20260501141609 58 235 1.0 3.0 0.00 0.00 0.00 85 1014.7